EW5711 Weather Reports


Display with metric or nautical units.
time (UTC)temp
F
wind
direction
speed
MPH
gust
MPH
rain 1hr
in
rain 24hr
in
rain mn
in
humidity
%
barometer
mb
20260507071600 51 132 0.0 6.0 0.00 0.35 0.00 79 1029.3
20260507071100 51 188 1.0 5.0 0.00 0.35 0.00 79 1029.4
20260507070601 51 98 0.0 5.0 0.00 0.35 0.00 79 1029.0
20260507070104 51 226 1.0 5.0 0.00 0.35 0.00 79 1029.0
20260507065617 51 125 0.0 5.0 0.00 0.35 0.00 79 1029.1
20260507065118 51 139 0.0 8.0 0.00 0.35 0.00 79 1029.1
20260507064600 51 158 1.0 8.0 0.00 0.35 0.00 79 1029.1
20260507064100 51 124 2.0 6.0 0.00 0.35 0.00 79 1028.8
20260507063601 51 138 0.0 5.0 0.00 0.35 0.00 79 1028.9
20260507063105 51 60 0.0 5.0 0.00 0.35 0.00 79 1028.8
20260507062600 51 120 1.0 7.0 0.00 0.35 0.00 79 1028.8
20260507062101 51 116 2.0 7.0 0.00 0.35 0.00 79 1028.7
20260507061603 52 108 1.0 6.0 0.00 0.35 0.00 79 1028.8
20260507061103 52 156 0.0 4.0 0.00 0.35 0.00 79 1028.8
20260507060604 52 147 0.0 4.0 0.00 0.35 0.00 79 1028.9
20260507060106 52 192 2.0 4.0 0.00 0.35 0.00 79 1028.9
20260507055624 52 351 0.0 3.0 0.00 0.35 0.00 79 1029.2
20260507055104 52 122 0.0 3.0 0.00 0.35 0.00 79 1029.2
20260507054626 52 145 1.0 3.0 0.00 0.35 0.00 79 1029.2
20260507054105 53 80 0.0 2.0 0.00 0.35 0.00 78 1029.1
20260507053620 53 138 0.0 4.0 0.00 0.35 0.00 78 1029.1
20260507053101 53 125 0.0 4.0 0.00 0.35 0.00 78 1029.2
20260507052620 53 106 0.0 2.0 0.00 0.35 0.00 78 1029.2
20260507052100 53 143 0.0 4.0 0.00 0.35 0.00 78 1029.0
20260507051602 54 95 0.0 6.0 0.00 0.35 0.00 78 1028.9
20260507051101 54 117 0.0 6.0 0.00 0.35 0.00 78 1028.7
20260507050602 54 122 0.0 4.0 0.00 0.35 0.00 78 1028.9
20260507050125 54 104 1.0 4.0 0.00 0.35 0.00 78 1028.9
20260507045604 54 75 1.0 4.0 0.00 0.35 0.00 78 1028.8
20260507045118 55 132 0.0 4.0 0.00 0.35 0.00 78 1028.7
20260507044600 55 147 1.0 7.0 0.00 0.35 0.00 78 1028.7
20260507044121 55 162 2.0 7.0 0.00 0.35 0.00 78 1028.9
20260507043601 55 65 1.0 4.0 0.00 0.35 0.00 78 1028.9
20260507043102 56 116 1.0 5.0 0.00 0.35 0.00 77 1029.1
20260507042601 56 121 2.0 5.0 0.00 0.35 0.00 77 1029.1
20260507042100 56 131 0.0 3.0 0.00 0.35 0.00 76 1028.9
20260507041602 57 200 1.0 3.0 0.00 0.35 0.00 75 1028.8
20260507041102 57 121 1.0 6.0 0.01 0.35 0.00 75 1028.7
20260507040623 57 136 1.0 6.0 0.01 0.35 0.00 75 1028.6
20260507040145 57 120 0.0 4.0 0.01 0.35 0.00 75 1028.6
20260507035617 57 150 0.0 6.0 0.01 0.35 0.35 75 1028.4
20260507035114 58 111 1.0 8.0 0.01 0.35 0.35 75 1028.4
20260507034615 58 94 2.0 9.0 0.01 0.35 0.35 75 1028.2
20260507034114 58 119 2.0 9.0 0.01 0.35 0.35 74 1028.2
20260507033616 58 85 0.0 8.0 0.01 0.35 0.35 73 1028.1
20260507033138 59 125 3.0 10.0 0.01 0.35 0.35 73 1028.1
20260507032617 59 96 4.0 10.0 0.01 0.35 0.35 72 1028.1
20260507032117 59 144 1.0 8.0 0.01 0.35 0.35 72 1028.1
20260507031601 60 105 0.0 4.0 0.00 0.34 0.34 71 1028.1
20260507031101 60 131 1.0 3.0 0.00 0.34 0.34 71 1027.9
20260507030624 60 50 0.0 2.0 0.00 0.34 0.34 71 1027.7
20260507030105 60 131 0.0 3.0 0.00 0.34 0.34 71 1027.6
20260507025605 60 119 0.0 3.0 0.00 0.34 0.34 71 1027.7
20260507025106 60 119 0.0 2.0 0.00 0.34 0.34 71 1027.6
20260507024608 60 87 0.0 2.0 0.00 0.34 0.34 71 1027.6
20260507024107 60 67 0.0 5.0 0.00 0.34 0.34 71 1027.6
20260507023607 60 60 1.0 5.0 0.00 0.34 0.34 72 1027.5
20260507023111 60 12 1.0 8.0 0.00 0.34 0.34 72 1027.6
20260507022611 60 52 0.0 8.0 0.00 0.34 0.34 72 1027.7
20260507022131 60 62 1.0 7.0 0.00 0.34 0.34 72 1027.6
20260507021611 60 50 1.0 5.0 0.00 0.34 0.34 72 1027.6
20260507021111 60 87 1.0 6.0 0.00 0.34 0.34 72 1027.7
20260507020613 60 3 2.0 6.0 0.00 0.34 0.34 72 1027.7
20260507015617 60 81 1.0 6.0 0.00 0.34 0.34 72 1027.8
20260507015138 60 108 0.0 8.0 0.00 0.34 0.34 72 1027.9
20260507014559 60 85 3.0 8.0 0.00 0.34 0.34 72 1028.0
20260507014059 60 51 2.0 9.0 0.00 0.34 0.34 72 1028.0
20260507013559 60 56 0.0 9.0 0.00 0.34 0.34 72 1028.0
20260507013103 60 83 2.0 10.0 0.00 0.34 0.34 72 1028.0
20260507012603 60 62 1.0 6.0 0.00 0.34 0.34 72 1028.0
20260507012124 60 79 1.0 9.0 0.00 0.34 0.34 72 1027.9
20260507011606 60 44 2.0 9.0 0.00 0.34 0.34 72 1028.0
20260507011105 60 36 2.0 9.0 0.00 0.34 0.34 72 1028.1
20260507010606 60 78 1.0 9.0 0.00 0.34 0.34 72 1028.0
20260507010108 60 31 4.0 8.0 0.00 0.34 0.34 72 1028.1
20260507005629 60 43 2.0 8.0 0.00 0.34 0.34 72 1028.0
20260507005110 60 99 2.0 8.0 0.00 0.34 0.34 72 1028.0
20260507004632 60 85 1.0 8.0 0.00 0.34 0.34 72 1028.1
20260507004112 60 63 2.0 11.0 0.01 0.34 0.34 72 1028.1
20260507003613 60 43 2.0 11.0 0.03 0.34 0.34 72 1028.1
20260507003115 60 90 4.0 11.0 0.03 0.34 0.34 71 1028.0
20260507002615 60 79 2.0 7.0 0.04 0.34 0.34 71 1027.9
20260507002116 60 87 2.0 7.0 0.04 0.34 0.34 71 1028.1
20260507001639 60 86 2.0 6.0 0.05 0.34 0.34 71 1028.0
20260507001059 60 66 1.0 5.0 0.05 0.34 0.34 71 1027.9
20260507000104 60 48 3.0 8.0 0.06 0.34 0.34 71 1027.7
20260506235601 60 56 2.0 6.0 0.06 0.34 0.34 72 1027.7
20260506235103 60 32 1.0 9.0 0.06 0.34 0.34 72 1027.7
20260506234606 60 65 1.0 12.0 0.06 0.34 0.34 72 1027.7
20260506234106 60 64 3.0 12.0 0.05 0.33 0.33 72 1027.9
20260506233608 60 39 2.0 8.0 0.03 0.31 0.31 72 1027.8
20260506232617 60 64 4.0 11.0 0.03 0.30 0.30 72 1027.8
20260506232118 60 61 3.0 8.0 0.03 0.30 0.30 72 1027.9
20260506231622 60 58 3.0 10.0 0.03 0.29 0.29 72 1028.1
20260506231100 60 57 2.0 12.0 0.04 0.29 0.29 72 1028.0
20260506230600 60 48 4.0 12.0 0.03 0.28 0.28 72 1027.9
20260506225604 60 41 1.0 6.0 0.04 0.28 0.28 72 1028.0
20260506225105 60 91 2.0 5.0 0.04 0.28 0.28 72 1028.1
20260506224607 60 60 1.0 5.0 0.04 0.28 0.28 72 1028.0
20260506224109 60 10 1.0 8.0 0.04 0.28 0.28 72 1028.1
20260506223610 60 45 2.0 12.0 0.05 0.28 0.28 73 1028.1
20260506223112 60 62 3.0 12.0 0.04 0.27 0.27 73 1028.2
20260506222612 60 50 3.0 9.0 0.05 0.27 0.27 73 1028.2
20260506222115 61 27 3.0 8.0 0.05 0.27 0.27 73 1028.3
20260506221600 61 358 3.0 9.0 0.05 0.26 0.26 73 1028.4
20260506221122 61 40 3.0 9.0 0.04 0.25 0.25 73 1028.4
20260506220601 61 60 3.0 11.0 0.05 0.25 0.25 73 1028.4
20260506220104 61 15 5.0 11.0 0.05 0.25 0.25 73 1028.4
20260506215604 61 8 2.0 10.0 0.05 0.24 0.24 72 1028.6
20260506215106 61 334 3.0 11.0 0.06 0.24 0.24 73 1028.6
20260506214608 61 2 3.0 11.0 0.06 0.24 0.24 73 1028.6
20260506214108 61 7 3.0 13.0 0.07 0.24 0.24 72 1028.7
20260506213609 61 4 3.0 13.0 0.08 0.23 0.23 72 1028.7
20260506213114 61 40 2.0 11.0 0.09 0.23 0.23 72 1028.7
20260506212617 61 36 3.0 10.0 0.09 0.22 0.22 72 1028.9
20260506212118 61 339 1.0 6.0 0.10 0.22 0.22 72 1028.9
20260506211600 61 6 1.0 5.0 0.12 0.21 0.21 73 1028.9
20260506211059 61 356 1.0 4.0 0.13 0.21 0.21 73 1029.0
20260506210601 61 58 0.0 3.0 0.12 0.20 0.20 73 1029.0
20260506205603 61 26 0.0 4.0 0.12 0.19 0.19 73 1029.1
20260506205105 61 24 1.0 4.0 0.11 0.18 0.18 73 1029.1
20260506204608 61 12 1.0 7.0 0.12 0.18 0.18 73 1029.0
20260506204109 61 354 1.0 7.0 0.11 0.17 0.17 74 1029.0
20260506203630 61 352 1.0 5.0 0.10 0.15 0.15 74 1029.1
20260506203111 61 341 1.0 5.0 0.10 0.14 0.14 74 1029.1
20260506202613 61 3 1.0 4.0 0.10 0.13 0.13 74 1029.1
20260506202113 62 345 0.0 4.0 0.09 0.12 0.12 74 1029.1
20260506201614 62 344 0.0 4.0 0.07 0.09 0.09 74 1029.2
20260506201136 62 7 1.0 4.0 0.06 0.08 0.08 75 1029.0
20260506200617 62 38 0.0 4.0 0.07 0.08 0.08 75 1028.8
20260506200059 62 323 0.0 4.0 0.07 0.08 0.08 75 1028.9
20260506195600 63 52 0.0 4.0 0.06 0.07 0.07 75 1029.0
20260506195123 63 343 0.0 3.0 0.06 0.07 0.07 76 1029.1
20260506194644 63 356 0.0 3.0 0.05 0.06 0.06 76 1029.0
20260506194136 63 67 0.0 2.0 0.06 0.06 0.06 75 1029.0
20260506193634 63 327 0.0 3.0 0.05 0.05 0.05 76 1029.2
20260506193136 63 300 0.0 3.0 0.04 0.04 0.04 76 1029.4
20260506192616 64 307 0.0 1.0 0.03 0.03 0.03 76 1029.4
20260506192058 64 307 0.0 1.0 0.03 0.03 0.03 76 1029.5
20260506191602 64 148 0.0 2.0 0.02 0.02 0.02 76 1029.7
20260506191125 64 148 0.0 2.0 0.02 0.02 0.02 75 1029.5
20260506190607 65 147 0.0 5.0 0.01 0.01 0.01 75 1029.5
20260506190111 65 82 0.0 6.0 0.01 0.01 0.01 74 1029.3
20260506185613 65 51 1.0 8.0 0.01 0.01 0.01 73 1029.3
20260506185113 65 61 2.0 8.0 0.01 0.01 0.01 72 1029.2
20260506184614 65 50 4.0 10.0 0.01 0.01 0.01 71 1029.1
20260506184117 66 5 4.0 10.0 0.00 0.00 0.00 70 1029.0
20260506183600 66 26 3.0 10.0 0.00 0.00 0.00 70 1029.0
20260506183102 66 52 1.0 8.0 0.00 0.00 0.00 70 1029.1
20260506181601 68 41 3.0 13.0 0.00 0.00 0.00 66 1029.2
20260506181102 68 67 5.0 13.0 0.00 0.00 0.00 65 1029.2
20260506180605 68 32 5.0 12.0 0.00 0.00 0.00 64 1029.3
20260506180109 68 29 3.0 15.0 0.00 0.00 0.00 64 1029.2
20260506175609 69 356 6.0 14.0 0.00 0.00 0.00 64 1029.3
20260506175110 69 75 5.0 16.0 0.00 0.00 0.00 63 1029.3
20260506174614 69 5 4.0 16.0 0.00 0.00 0.00 63 1029.3
20260506174134 70 64 5.0 14.0 0.00 0.00 0.00 62 1029.4
20260506173633 70 57 6.0 14.0 0.00 0.00 0.00 62 1029.4
20260506173114 70 332 3.0 12.0 0.00 0.00 0.00 64 1029.4
20260506172613 69 55 3.0 14.0 0.00 0.00 0.00 63 1029.5
20260506172115 69 76 7.0 14.0 0.00 0.00 0.00 63 1029.5
20260506171638 69 34 6.0 14.0 0.00 0.00 0.00 63 1029.6
20260506171118 69 44 5.0 13.0 0.00 0.00 0.00 64 1029.7
20260506170601 69 353 6.0 12.0 0.00 0.00 0.00 63 1029.7
20260506165602 70 40 3.0 9.0 0.00 0.00 0.00 63 1029.8
20260506165122 70 5 2.0 7.0 0.00 0.00 0.00 63 1029.8
20260506164605 70 58 1.0 7.0 0.00 0.00 0.00 63 1029.9
20260506164125 70 5 2.0 8.0 0.00 0.00 0.00 63 1030.0
20260506163605 70 43 4.0 8.0 0.00 0.00 0.00 62 1030.1
20260506163109 70 64 1.0 7.0 0.00 0.00 0.00 62 1030.2
20260506162611 71 6 2.0 13.0 0.00 0.00 0.00 61 1030.3
20260506162134 72 41 5.0 13.0 0.00 0.00 0.00 60 1030.3
20260506161616 72 341 2.0 9.0 0.00 0.00 0.00 60 1030.5
20260506161115 71 41 4.0 13.0 0.00 0.00 0.00 60 1030.6
20260506160559 71 342 7.0 16.0 0.00 0.00 0.00 60 1030.8
20260506155601 71 53 7.0 17.0 0.00 0.00 0.00 60 1030.8
20260506155122 71 346 2.0 14.0 0.00 0.00 0.00 61 1030.9
20260506154624 71 86 4.0 14.0 0.00 0.00 0.00 61 1031.1
20260506154124 71 41 5.0 14.0 0.00 0.00 0.00 60 1031.2
20260506153605 71 13 5.0 15.0 0.00 0.00 0.00 60 1031.1
20260506153110 71 72 8.0 15.0 0.00 0.00 0.00 61 1031.3
20260506152613 71 332 6.0 12.0 0.00 0.00 0.00 62 1031.3
20260506152115 71 358 5.0 13.0 0.00 0.00 0.00 62 1031.2
20260506151636 71 64 5.0 13.0 0.00 0.00 0.00 62 1031.1
20260506151115 71 69 5.0 13.0 0.00 0.00 0.00 62 1031.4
20260506150617 70 2 2.0 13.0 0.00 0.00 0.00 62 1031.4
20260506150100 70 350 3.0 14.0 0.00 0.00 0.00 63 1031.4
20260506145559 70 60 7.0 16.0 0.00 0.00 0.00 63 1031.3
20260506145101 70 53 8.0 16.0 0.00 0.00 0.00 63 1031.3
20260506144604 70 59 8.0 13.0 0.00 0.00 0.00 63 1031.2
20260506144107 70 62 3.0 11.0 0.00 0.00 0.00 64 1031.3
20260506143609 70 78 5.0 13.0 0.00 0.00 0.00 64 1031.3
20260506143114 69 54 6.0 13.0 0.00 0.00 0.00 65 1031.2
20260506142634 69 69 6.0 13.0 0.00 0.00 0.00 65 1031.1
20260506142113 69 24 6.0 15.0 0.00 0.00 0.00 65 1031.1
20260506141637 68 341 7.0 15.0 0.00 0.00 0.00 66 1031.2
20260506140605 68 71 4.0 14.0 0.00 0.00 0.00 67 1031.2
20260506140109 67 18 5.0 16.0 0.00 0.00 0.00 67 1031.3
20260506135608 67 48 7.0 14.0 0.00 0.00 0.00 67 1031.3
20260506135110 67 18 5.0 15.0 0.00 0.00 0.00 68 1031.4
20260506134614 67 50 8.0 15.0 0.00 0.00 0.00 67 1031.5
20260506134134 67 90 3.0 13.0 0.00 0.00 0.00 68 1031.7
20260506133617 66 46 6.0 14.0 0.00 0.00 0.00 68 1031.7
20260506133100 66 45 5.0 13.0 0.00 0.00 0.00 68 1031.7
20260506132601 66 59 1.0 13.0 0.00 0.00 0.00 68 1031.7
20260506132102 66 83 4.0 11.0 0.00 0.00 0.00 68 1031.4
20260506131605 66 52 1.0 11.0 0.00 0.00 0.00 68 1031.5
20260506131106 66 75 5.0 10.0 0.00 0.00 0.00 68 1031.7
20260506130607 66 35 4.0 9.0 0.00 0.00 0.00 68 1031.7
20260506130109 66 32 3.0 11.0 0.00 0.00 0.00 68 1031.8
20260506125607 66 74 5.0 11.0 0.00 0.00 0.00 68 1031.6
20260506125108 66 13 4.0 12.0 0.00 0.00 0.00 69 1031.4
20260506124611 66 357 7.0 14.0 0.00 0.00 0.00 69 1031.5
20260506124112 66 3 6.0 14.0 0.00 0.00 0.00 69 1031.6
20260506123611 66 3 4.0 12.0 0.00 0.00 0.00 69 1031.8
20260506123114 65 88 2.0 13.0 0.00 0.00 0.00 70 1031.9
20260506122612 65 58 4.0 13.0 0.00 0.00 0.00 70 1031.9
20260506122113 65 64 3.0 12.0 0.00 0.00 0.00 70 1031.7
20260506121615 64 8 5.0 12.0 0.00 0.00 0.00 70 1031.7
20260506121115 64 30 2.0 9.0 0.00 0.00 0.00 70 1031.8
20260506120616 64 55 2.0 10.0 0.00 0.00 0.00 70 1032.0
20260506120059 64 51 5.0 10.0 0.00 0.00 0.00 70 1032.0
20260506115600 64 29 4.0 9.0 0.00 0.00 0.00 70 1032.0
20260506115101 64 85 4.0 11.0 0.00 0.00 0.00 70 1032.0
20260506114625 64 67 2.0 11.0 0.00 0.00 0.00 70 1032.1
20260506114104 64 26 5.0 9.0 0.00 0.00 0.00 70 1032.1
20260506113605 64 71 1.0 8.0 0.00 0.00 0.00 70 1032.1
20260506113108 64 78 2.0 8.0 0.00 0.00 0.00 71 1032.2
20260506112607 64 56 1.0 9.0 0.00 0.00 0.00 71 1032.1
20260506112109 64 21 4.0 9.0 0.00 0.00 0.00 70 1032.0
20260506111603 63 19 1.0 9.0 0.00 0.00 0.00 71 1031.9
20260506111103 63 52 3.0 8.0 0.00 0.00 0.00 71 1032.0
20260506110626 63 34 2.0 5.0 0.00 0.00 0.00 71 1032.2
20260506110107 63 83 2.0 8.0 0.00 0.00 0.00 71 1032.3
20260506105607 63 44 5.0 11.0 0.00 0.00 0.00 71 1032.2
20260506105129 63 41 3.0 11.0 0.00 0.00 0.00 71 1032.1
20260506104610 63 327 2.0 8.0 0.00 0.00 0.00 71 1032.1
20260506104110 63 346 3.0 8.0 0.00 0.00 0.00 71 1032.1
20260506103631 63 59 2.0 11.0 0.00 0.00 0.00 71 1032.2
20260506103112 63 6 6.0 11.0 0.00 0.00 0.00 71 1032.1
20260506102612 63 18 3.0 10.0 0.00 0.00 0.00 71 1032.0
20260506102111 63 17 4.0 10.0 0.00 0.00 0.00 71 1032.1
20260506101612 62 60 3.0 6.0 0.00 0.00 0.00 71 1032.3
20260506101114 62 55 0.0 10.0 0.00 0.00 0.00 71 1032.2
20260506100616 62 56 3.0 10.0 0.00 0.00 0.00 71 1032.0
20260506100059 62 59 3.0 8.0 0.00 0.00 0.00 71 1032.1
20260506095619 62 67 3.0 12.0 0.00 0.00 0.00 71 1032.0
20260506095102 62 109 7.0 12.0 0.00 0.00 0.00 71 1032.0
20260506094605 62 34 4.0 11.0 0.00 0.00 0.00 71 1032.1
20260506094104 62 50 3.0 7.0 0.00 0.00 0.00 70 1032.2
20260506093605 62 26 4.0 10.0 0.00 0.00 0.00 70 1032.2
20260506093129 62 60 4.0 10.0 0.00 0.00 0.00 70 1032.1
20260506092607 63 6 1.0 9.0 0.00 0.00 0.00 70 1032.1
20260506092109 63 47 3.0 9.0 0.00 0.00 0.00 70 1032.1
20260506091613 63 44 3.0 11.0 0.00 0.00 0.00 70 1032.1
20260506091112 63 48 3.0 11.0 0.00 0.00 0.00 69 1031.9
20260506090628 63 48 3.0 10.0 0.00 0.00 0.00 69 1031.9
20260506090130 63 43 2.0 8.0 0.00 0.00 0.00 69 1031.9
20260506085609 63 157 5.0 10.0 0.00 0.00 0.00 69 1031.9
20260506085111 63 25 4.0 10.0 0.00 0.00 0.00 69 1031.9
20260506084614 63 110 1.0 11.0 0.00 0.00 0.00 69 1031.9
20260506084116 63 57 2.0 11.0 0.00 0.00 0.00 69 1031.9
20260506083617 63 43 1.0 7.0 0.00 0.00 0.00 68 1031.9
20260506083101 63 62 2.0 7.0 0.00 0.00 0.00 68 1031.9
20260506082602 63 67 1.0 11.0 0.00 0.00 0.00 68 1031.8
20260506082104 64 68 4.0 11.0 0.00 0.00 0.00 67 1031.9
20260506081625 64 51 2.0 9.0 0.00 0.00 0.00 67 1031.9
20260506081104 64 67 2.0 11.0 0.00 0.00 0.00 67 1031.7
20260506080606 64 354 4.0 11.0 0.00 0.00 0.00 67 1031.8
20260506073107 64 86 0.0 7.0 0.00 0.00 0.00 66 1031.5
20260506072608 64 91 1.0 5.0 0.00 0.00 0.00 66 1031.5
20260506072109 64 64 1.0 9.0 0.00 0.00 0.00 65 1031.4